Regional Weather Roundup
Issued by NWS

Home | Current Version | Previous Version | Graphics & Text | Print | Product List | Glossary On
Versions: 1 2 3 4 5 6 7 8 9 10 11 12 13 14 15 16 17 18 19 20 21 22 23 24 25 26 27 28 29 30 31 32 33 34 35 36 37 38 39 40 41 42 43 44 45 46 47 48 49 50
000
ASUS43 KDTX 052110
RWRMI
MICHIGAN HOURLY REGIONAL WEATHER ROUNDUP
NATIONAL WEATHER SERVICE DETROIT/PONTIAC MI
400 PM EST MON DEC 05 2016

NOTE: "FAIR" INDICATES FEW OR NO CLOUDS BELOW 12,000 FEET WITH NO
SIGNIFICANT WEATHER AND/OR OBSTRUCTION TO VISIBILITY.

MIZ047>049-052>055-059>063-066>070-074>076-081>083-052200-
SOUTHEAST LOWER MICHIGAN

CITY           SKY/WX    TMP DP  RH WIND       PRES   REMARKS
ADRIAN         CLOUDY    35  30  82 SW13      30.08R WCI  26
ALMA           CLOUDY    40  32  75 SW10      30.01R WCI  33
ANN ARBOR      CLOUDY    37  30  75 S10       30.06R WCI  30
BAD AXE        CLOUDY    38  31  76 W9        30.00R WCI  32
CARO           MOCLDY    38  32  77 SW9       30.00R WCI  32
DETROIT CITY   MOCLDY    40  32  73 W10       30.06R WCI  33
DETROIT        MOCLDY    40  31  70 SW15      30.08R WCI  32
FLINT          MOCLDY    39  31  72 SW12      30.03R WCI  32
GROSSE ILE     CLOUDY    39  31  73 SW10      30.07R WCI  32
HILLSDALE      CLOUDY    32  28  86 SW6       30.05R WCI  26
HOWELL         CLOUDY    38  31  76 SW9       30.03R WCI  31

CITY           SKY/WX    TMP DP  RH WIND       PRES   REMARKS
JACKSON        MOCLDY    35  28  75 SW10      30.06R WCI  27
LAMBERTVILLE   CLOUDY    39  30  70 SW5       30.09R
LANSING        CLOUDY    37  29  72 SW10      30.04R WCI  30
LAPEER         NOT AVBL
MASON          CLOUDY    36  30  80 SW8       30.04R WCI  29
MONROE         CLOUDY    38  31  74 SW10      30.08R WCI  31
MT. CLEMENS    MOCLDY    41  31  66 SW12      30.02R
PONTIAC        MOCLDY    39  30  70 SW9       30.02R WCI  33
PORT HOPE        N/A     40  31  70 SW10      29.97S WCI  33
PORT HURON     MOCLDY    41  30  65 SW6       30.04R
TRI CITIES     MOCLDY    40  33  76 SW10      30.01R WCI  33
MIDLAND        MOCLDY    40  30  67 SW5       29.99R
TROY           CLOUDY    41  31  68 SW9       30.06R
SAGINAW HB     MOCLDY    39  32  75 SW12      30.00S WCI  32
$$
MIZ043>046-050>051-056>058-064>065-071>073-077>080-052200-
SOUTHWEST LOWER MICHIGAN

CITY           SKY/WX    TMP DP  RH WIND       PRES   REMARKS
BATTLE CREEK   CLOUDY    34  29  82 SW13      30.06R WCI  25
BENTON HARBOR  CLOUDY    34  29  82 S7        30.03S WCI  28
BIG RAPIDS     PTCLDY    42  30  62 SW10      29.96R
COLDWATER      CLOUDY    34  30  85 SW7       30.06R WCI  28
FREMONT        CLOUDY    40  31  71 SW9       29.98R WCI  33
HOLLAND        CLOUDY    36  32  85 S15       30.04R WCI  27
GRAND RAPIDS   MOCLDY    37  31  78 S15       30.03R WCI  28
IONIA          CLOUDY    37  32  81 S14       30.02R WCI  28
KALAMAZOO      CLOUDY    34  27  75 S13       30.06R WCI  25
LUDINGTON      CLOUDY    39  34  80 S8G16     29.97R WCI  34
MARSHALL       CLOUDY    34  29  82 SW7       30.05R WCI  28
MOUNT PLEASANT PTCLDY    40  31  71 SW7       29.98R
MUSKEGON       MOCLDY    42  34  73 S17G23    30.01R
SOUTH HAVEN    CLOUDY    35  32  88 S6        30.04R WCI  30
$$
MIZ016>042-052200-
NORTHERN LOWER MICHIGAN

CITY           SKY/WX    TMP DP  RH WIND       PRES   REMARKS
ALPENA         MOCLDY    41  29  62 W6        29.93R
BEAVER ISLAND  CLOUDY    39  31  71 W13       29.92R WCI  32
BELLAIRE       MOCLDY    41  31  68 CALM      29.95R
CADILLAC       CLEAR     38  30  73 SW8       29.93R WCI  32
CHARLEVOIX     MOCLDY    41  32  71 W10G16    29.96R
FRANKFORT      MOCLDY    40  34  78 S8G16     29.95R WCI  35
GAYLORD        MOCLDY    38  28  67 W13       29.91R WCI  30
GRAYLING       PTCLDY    39  31  72 W7        29.94R WCI  34
HARBOR SPRINGS CLOUDY    41  32  70 W9G17     29.92R
HOUGHTON LAKE  CLEAR     38  30  73 SW9       29.95R WCI  31
MANISTEE       MOCLDY    40  32  73 SW8       29.96R WCI  34
OSCODA         PTCLDY    43  32  65 SW8       29.95R
PELLSTON       MOCLDY    39  29  67 W9        29.92R WCI  33
ROGERS CITY    CLOUDY    38  35  87 CALM      29.93R
TRAVERSE CITY  PTCLDY    42  30  62 SW7       29.93R
$$
MIZ007>008-015-052200-
EASTERN UPPER MICHIGAN

CITY           SKY/WX    TMP DP  RH WIND       PRES   REMARKS
KINROSS        CLEAR     37  32  82 W9        29.90R WCI  30
MACKINAC ISLAN CLOUDY    38  30  74 W10       29.91R WCI  30
NEWBERRY       CLOUDY    35  32  88 SW3       29.90R
S. S. MARIE    MOCLDY    38  32  79 W9        29.88R WCI  31
MUNISING         N/A     39  29  67 SW3       29.88R
$$
MIZ004>006-011>014-085-052200-
CENTRAL UPPER MICHIGAN

CITY           SKY/WX    TMP DP  RH WIND       PRES   REMARKS
MANISTIQUE     PTCLDY    37  31  79 CALM      29.90R
ESCANABA       MOCLDY    38  32  79 SW8       29.91R WCI  32
MENOMINEE      PTCLDY    35  30  82 SW12      29.93R WCI  27
SAWYER-GWINN   CLEAR     36  30  80 S3        29.85F
$$
MIZ001>003-009>011-084-052200-
WESTERN UPPER MICHIGAN

CITY           SKY/WX    TMP DP  RH WIND       PRES   REMARKS
IRON MOUNTAIN  CLEAR     39  30  70 S7        29.84S WCI  34
HOUGHTON       CLOUDY    36  29  75 SW6       29.81R WCI  31
COPPER HARBOR    N/A     36  33  89 VRB5      29.82R WCI  32
IRONWOOD       CLOUDY    38  30  73 SE7       29.79S WCI  33
$$

ABBREVIATIONS USED IN REMARKS
   TC - TEMPERATURE IN CELSIUS
  WCI - WIND CHILL INDEX
   HX - HEAT INDEX
  VSB - VISIBILITY





USA.gov is the U.S. government's official web portal to all federal, state and local government web resources and services.